Warning: Javascript must be enabled to use all the features on this page!


Page Loading - Please Wait...

Click to hideNews Bulletins

Streamflow Measurements for the Nation


USGS 12173500 RUBY CREEK BELOW PANTHER CREEK NEAR NEWHALEM, WA


Whatcom County, Washington
Hydrologic Unit Code 17110005
Latitude  48°42'30", Longitude 120°58'34" NAD27
Drainage area 206  square miles
Gage datum 1,640 feet above NGVD29
Output formats
HTML table with channel data
HTML table without channel data
Tab-separated data with channel data
Tab-separated data without channel data
Graph of data
Reselect output format
Meas.
Number
  Date       Time Time
Datum
Measurement
Used?
  Who Measuring
Agency
Stream
flow
(ft3/s)
Gage
Height
(ft)
GH
Change
(ft)
Meas.
Duration
(hr)
Meas.
Rated
  Control Flow
Adjust.
Code
 
1522019-09-23 11:24:57PDTYesJJM/BJHUSGS2221.380.000.25FairClearNONE
1512019-07-30 12:05:35PDTYesGWH/JJMUSGS2561.650.000.25GoodClearNONE
1502019-06-04 11:49PDTYesJBGUSGS15603.870.000.47GoodClearNONE
1492019-05-14 15:34:30PDTYesJBG/NFEUSGS19504.290.000.53FairClearNONE
1482019-04-11 16:36:11PDTYesJBG/GWHUSGS4872.430.000.24FairDebrisModerateNONE
1472019-02-21 12:17PSTYesJBG/KFJUSGS1281.180.011.10PoorClearNONE
1462018-11-13 14:49:01PSTYesJBG/GWHUSGS2531.730.000.25FairDebrisModerateNONE
1452018-09-18 14:16:51PDTYesjbgUSGS1141.050.000.20FairClearNONE
1442018-07-06 13:18:42PDTYesJMPUSGS10203.250.041.50FairDebrisLightNONE
1432018-06-11 13:58:18PDTYesJMPUSGS11603.480.001.50PoorDebrisLightNONE
1422018-06-07 13:59:49PDTYesJMP/JBGUSGS13403.730.001.05PoorClearNONE
1412018-05-14 12:45:39PDTYesJMP/DAMUSGS37705.230.402.00PoorDebrisModerateNONE
1401969-10-20 05:00PDTYesQ/hUSGS4252.59 Good NONE
1391969-08-07 05:00PDTYesJRWUSGS2572.06 Good NONE
1381969-06-19 05:00PDTYesRQUSGS17704.99 Fair NONE
1371969-04-28 05:00PDTYesWMMUSGS7683.42 Good NONE
1361969-03-02 04:00PSTYesRQUSGS1101.45 Good NONE
1351968-12-18 04:00PSTYesRQUSGS1831.80 Good NONE
1341968-11-20 04:00PSTYesRQUSGS3802.47 Fair NONE
1331968-09-19 05:00PDTYesQ/TUSGS3342.33 Good NONE
1321968-08-13 05:00PDTYesRQUSGS3622.42 Good NONE
1311968-06-25 05:00PDTYesWMCUSGS25405.88 Good NONE
1301968-05-14 05:00PDTYesWMCUSGS13604.33 Good NONE
1291968-02-27 04:00PSTYesH/LUSGS6312.96 Unspecified NONE
1281967-12-19 04:00PSTYesWMMUSGS2081.88 Good NONE
1271967-11-08 04:00PSTYesWMMUSGS5812.90 Good NONE
1261967-09-20 05:00PDTYesWMMUSGS2281.94 Good NONE
1251967-08-02 05:00PDTYesWMMUSGS5272.82 Good NONE
1241967-06-17 05:00PDTYesWMMUSGS40807.10 Fair NONE
1231967-04-27 04:00PSTYesWMMUSGS2401.93 Fair NONE
1221967-03-01 04:00PSTYesHMUSGS1811.70 Unspecified NONE
1211966-12-22 04:00PSTYesWMMUSGS6733.10 Fair NONE
1201966-11-01 04:00PSTYesWMMUSGS4582.55 Fair NONE
1191966-09-15 05:00PDTYesAWMUSGS2531.92 Fair NONE
1181966-08-01 05:00PDTYesWMMUSGS5302.70 Fair NONE
1171966-05-26 05:00PDTYesM/LUSGS19905.16 Good NONE
1161966-04-27 05:00PDTYesM/MUSGS4652.54 Fair NONE
1151966-03-11 04:00PSTYesWMMUSGS92.71.39 Fair NONE
1141966-01-29 04:00PSTYesWMMUSGS1241.40 Fair NONE
1131965-10-06 05:00PDTYesWMMUSGS5142.73 Fair NONE
1121965-08-24 05:00PDTYesH/MUSGS4672.53 Good NONE
1111965-07-15 05:00PDTYesWMMUSGS10703.93 Good NONE
1101965-06-09 05:00PDTYesWMMUSGS30006.27 Unspecified NONE
1091965-03-29 04:00PSTYesHMUSGS2351.92 Good NONE
1081965-02-25 04:00PSTYesM/MUSGS2572.04 Fair NONE
1071965-01-16 04:00PSTYesWMMUSGS2231.85 Fair NONE
1061964-12-10 04:00PSTYesWMMUSGS2552.01 Fair NONE
1051964-11-05 04:00PSTYesWMMUSGS2782.08 Good NONE
1041964-09-28 05:00PDTYesWMMUSGS2371.93 Good NONE
1031964-08-20 05:00PDTYesWMMUSGS3832.41 Fair NONE
1021964-07-14 05:00PDTYesWMMUSGS22505.52 Good NONE
1011964-06-18 05:00PDTYesWMMUSGS27706.00 Fair NONE
1001964-06-11 05:00PDTYesWMMUSGS43307.58 Fair NONE
991964-04-30 05:00PDTYesM/AUSGS4132.39 Good NONE
981964-03-26 04:00PSTYesHMUSGS1561.55 Good NONE
971964-02-27 04:00PSTYesHMUSGS1651.60 Good NONE
961964-02-06 04:00PSTYesCPUSGS2161.78 Good NONE
951963-12-18 04:00PSTYesWVFUSGS2902.02 Good NONE
941963-11-20 04:00PSTYesWVFUSGS3152.17 Good NONE
931963-10-16 05:00PDTYesWVFUSGS1711.64 Good NONE
921963-08-29 05:00PDTYesF/HUSGS2942.00 GoodClearNONE
911963-06-30 05:00PDTYesWVFUSGS8973.41 GoodClearNONE
901963-04-27 04:00PSTYesHBUSGS3582.27 FairClearNONE
891963-03-30 04:00PSTYesP/MUSGS2671.98 FairClearNONE
881963-02-27 04:00PSTYesGLOUSGS5302.62 FairClearNONE
871963-01-30 04:00PSTYesR/RUSGS1002.17 FairIceCoverNONE
861962-12-12 04:00PSTYesDRUSGS5442.76 Fair NONE
851962-10-31 04:00PSTYesWMMUSGS2241.76 GoodClearNONE
841956-10-26 04:00PSTYesDMTUSGS4442.89 Good NONE
831956-08-27 05:00PDTYesT/VUSGS3942.46 Fair NONE
821956-07-19 05:00PDTYesT/SUSGS15904.58 Good NONE
811956-06-06 05:00PDTYesDOMUSGS22705.57 Good NONE
801956-04-27 04:00PSTYesP/HUSGS13704.44 Good NONE
791956-03-27 04:00PSTYesP/FUSGS1671.93 Good NONE
781956-02-28 04:00PSTYesP/BUSGS1191.79 Fair NONE
771956-01-06 04:00PSTYesJ/TUSGS2111.96 Unspecified NONE
761955-12-01 04:00PSTYesDMTUSGS3322.26 Good NONE
751955-10-20 04:00PSTYesDMTUSGS2932.18 Good NONE
741955-08-23 05:00PDTYesT/SUSGS3662.37 Good NONE
731955-08-03 05:00PDTYesDMTUSGS6873.14 Good NONE
721955-06-23 05:00PDTYesDMTUSGS36006.74 Good NONE
711955-04-28 05:00PDTYesH/PUSGS2222.09 Good NONE
701955-03-29 04:00PSTYesP/HUSGS1211.77 Fair NONE
691955-02-25 04:00PSTYesM/HUSGS1311.73 Fair NONE
681955-01-29 04:00PSTYesWRBUSGS1711.86 Good NONE
671954-12-29 04:00PSTYesB/TUSGS2992.31 Good NONE
661954-11-17 04:00PSTYesASUSGS458 Good NONE
651954-10-14 04:00PSTYesASUSGS2312.01 Unspecified NONE
641954-09-08 05:00PDTYesS/MUSGS4452.58 Good NONE
631954-08-02 05:00PDTYesASUSGS15904.62 Good NONE
621954-07-08 05:00PDTYesASUSGS35106.68 Good NONE
611954-06-02 05:00PDTYesASUSGS16704.88 Good NONE
601954-04-27 05:00PDTYesP/BUSGS4672.72 Fair NONE
591954-03-31 04:00PSTYesP/MUSGS1892.01 Fair NONE
581954-03-02 04:00PSTYesDOMUSGS2382.30 Fair NONE
571954-02-03 04:00PSTYesT/SUSGS1431.86 GoodUnspecifedNONE
561954-01-12 04:00PSTYesS/GUSGS2052.21 FairUnspecifedNONE
551953-12-08 04:00PSTYesASUSGS2942.37 UnspecifiedUnspecifedNONE
541953-10-31 04:00PSTYesASUSGS8533.53 GoodUnspecifedNONE
531953-10-08 04:00PSTYesASUSGS5292.78 GoodUnspecifedNONE
521953-08-05 05:00PDTYesASUSGS6283.24 GoodUnspecifedNONE
511953-06-11 05:00PDTYesDGAUSGS23305.49 FairClearNONE
501953-04-28 05:00PDTYesF/MUSGS14304.54 GoodClearNONE
491953-04-03 04:00PSTYesM/PUSGS2242.00 FairClearNONE
481953-03-02 04:00PSTYesJ/PUSGS1511.84 FairClearNONE
471953-02-05 04:00PSTYesASUSGS4442.74 FairClearNONE
461953-01-07 04:00PSTYesASUSGS63.51.30 PoorIceCoverNONE
451952-12-04 04:00PSTYesASUSGS71.41.20 GoodClearNONE
441952-10-22 04:00PSTYesS/MUSGS82.01.33 GoodClearNONE
431952-09-07 05:00PDTYesDGAUSGS1761.78 GoodClearNONE
421952-07-10 05:00PDTYesDGJUSGS12004.00 Good NONE
411952-06-05 05:00PDTYesO/OUSGS26505.75 Good NONE
401952-04-30 05:00PDTYesSRSUSGS11204.04 Fair NONE
391952-03-29 04:00PSTYesC/PUSGS1611.85 Good NONE
381952-02-25 04:00PSTYesC/SUSGS1051.68 Good NONE
361951-12-17 04:00PSTYesDGAUSGS1331.65 Good NONE
351951-11-08 04:00PSTYesA/MUSGS2422.04 Good NONE
341951-09-14 05:00PDTYesDGAUSGS2121.90 Good NONE
331951-08-02 05:00PDTYesDGAUSGS5552.92 Good NONE
321951-06-27 05:00PDTYesA/VUSGS21005.32 Good NONE
311951-05-24 05:00PDTYesDGAUSGS34706.70 Good NONE
301951-05-23 05:00PDTYesDGAUSGS41007.22 Good NONE
291951-05-03 05:00PDTYesS/AUSGS7293.26 Fair NONE
281951-04-04 04:00PSTYesP/SUSGS5732.88 Fair NONE
271951-02-25 04:00PSTYesA/AUSGS3902.43 Good NONE
371951-02-07 04:00PSTYesL/PUSGS1541.90 Good NONE
261951-01-18 04:00PSTYesT/AUSGS3202.19 Good NONE
251950-12-08 04:00PSTYesDGAUSGS4352.66 Good NONE
241950-10-20 04:00PSTYesA/FUSGS4102.48 Good NONE
231950-09-07 05:00PDTYesDOUSGS2682.10 Good NONE
221950-07-26 05:00PDTYesDGAUSGS14904.66 Good NONE
211950-06-21 05:00PDTYesA/LUSGS56008.61 Fair NONE
201950-06-20 05:00PDTYesA/LUSGS51508.58 Fair NONE
191950-05-27 05:00PDTYesRGPUSGS24905.58 Fair NONE
181950-05-02 05:00PDTYesL/PUSGS4222.60 Good NONE
171950-04-03 04:00PSTYesL/OUSGS1961.82 Good NONE
161950-01-05 04:00PSTYesO/PUSGS2892.49 Good NONE
151949-12-06 04:00PSTYesPGSUSGS8443.55 Good NONE
141949-11-16 04:00PSTYesDGAUSGS4962.52 Good NONE
131949-10-14 04:00PSTYesA/LUSGS2231.70 Good NONE
121949-09-03 04:00PSTYesSROUSGS2761.92 Good NONE
111949-08-04 04:00PSTYesDGAUSGS5422.67 Good NONE
101949-06-21 04:00PSTYesWMDUSGS13804.31 Good NONE
91949-05-14 04:00PSTYesD/WUSGS45407.65 Fair NONE
81949-05-13 04:00PSTYesW/DUSGS43207.82 Fair NONE
71949-04-27 04:00PSTYesB/PUSGS10603.67 Good NONE
61949-04-08 04:00PSTYesK/BUSGS5342.57 Good NONE
51949-01-29 04:00PSTYesMMMUSGS1131.15 Good NONE
41948-12-30 05:00PDTYesDGAUSGS1181.22 Good NONE
31948-12-10 05:00PDTYesY/MUSGS1471.39 Good NONE
21948-10-12 05:00PDTYesK/MUSGS4992.45 Good NONE